Topeka, KS

2:34 AM CDT on April 26, 2017 (GMT -0500)
Billard Municipal

Weather History for KTOP - August, 2013

Change the Weather History Date:

Sunday, August 18, 2013

  Actual Average Record
Temperature  
Mean Temperature 70 °F 78 °F  
Max Temperature 83 °F 89 °F 109 °F (1936)
Min Temperature 56 °F 66 °F 50 °F (2012)
Degree Days  
Heating Degree Days 0 0  
Month to date heating degree days 0 0  
Since 1 June heating degree days 5 8  
Since 1 July heating degree days 0 0  
Cooling Degree Days 5 12  
Month to date cooling degree days 167 242  
Year to date cooling degree days 1073 1084  
Since 1 June cooling degree days 928 958  
Growing Degree Days 18 (Base 50)    
Moisture  
Dew Point 59 °F    
Average Humidity 70    
Maximum Humidity 93    
Minimum Humidity 47    
Precipitation  
Precipitation 0.00 in 0.13 in 4.48 in (1949)
Month to date precipitation 5.19 2.45  
Year to date precipitation 24.45 24.78  
Snow  
Snow 0.00 in 0.00 in T in (1949)
Month to date snowfall 0.0 0.0  
Year to date snowfall 24.2 11.3  
Since 1 July snowfall 0.0 0.0  
Snow Depth 0.00 in    
Sea Level Pressure  
Sea Level Pressure 30.12 in    
Wind  
Wind Speed 4 mph (SE)    
Max Wind Speed 14 mph    
Max Gust Speed 18 mph    
Visibility 8 miles    
Events Fog    
T = Trace of Precipitation, MM = Missing Value Source: NWS Daily Summary

Daily Weather History Graph

Daily Weather History Graph

Search for Another Location

Airport or City:

Trip Planner

Search our weather history database for the weather conditions in past years. The results will help you decide how hot, cold, wet, or windy it might be!

Date:

Astronomy

Aug. 18, 2013 Rise Set
Actual Time 6:38 AM CDT 8:13 PM CDT
Civil Twilight 6:10 AM CDT 8:41 PM CDT
Nautical Twilight 5:36 AM CDT 9:15 PM CDT
Astronomical Twilight 5:00 AM CDT 9:51 PM CDT
Moon 6:19 PM CDT (8/18) 3:50 AM CDT (8/18)
Length of Visible Light 14h 30m
Length of Day
13h 34m
Waxing Gibbous, 92% of the Moon is Illuminated
Aug 18
Waxing Gibbous
Aug 20
Full
Aug 28
Last Quarter
Sep 5
New
Sep 12
First Quarter

Hourly Weather History & Observations

Time (CDT) Temp. Heat Index Dew Point Humidity Pressure Visibility Wind Dir Wind Speed Gust Speed Precip Events Conditions
12:07 AM 60.1 °F - 59.0 °F 96% 30.14 in 0.2 mi Calm Calm - N/A Fog Fog
12:21 AM 60.1 °F - 57.9 °F 93% 30.14 in 1.2 mi Calm Calm - N/A   Clear
12:24 AM 61.0 °F - 57.9 °F 90% 30.14 in 4.0 mi Calm Calm - N/A   Clear
12:53 AM 61.0 °F - 57.9 °F 90% 30.13 in 7.0 mi Calm Calm - N/A   Clear
1:53 AM 60.1 °F - 55.9 °F 86% 30.13 in 9.0 mi Calm Calm - N/A   Clear
2:53 AM 60.1 °F - 55.9 °F 86% 30.12 in 6.0 mi Calm Calm - N/A   Clear
3:53 AM 57.9 °F - 55.0 °F 90% 30.14 in 3.0 mi Calm Calm - N/A   Clear
4:08 AM 57.0 °F - 54.0 °F 89% 30.15 in 9.0 mi Calm Calm - N/A   Partly Cloudy
4:24 AM 57.9 °F - 55.0 °F 90% 30.14 in 6.0 mi Calm Calm - N/A   Mostly Cloudy
4:53 AM 57.0 °F - 55.0 °F 93% 30.13 in 6.0 mi SE 3.5 mph - N/A   Partly Cloudy
5:53 AM 57.0 °F - 54.0 °F 89% 30.13 in 8.0 mi Calm Calm - N/A   Clear
6:53 AM 55.9 °F - 54.0 °F 93% 30.15 in 3.0 mi Calm Calm - N/A   Clear
7:53 AM 59.0 °F - 57.0 °F 93% 30.16 in 5.0 mi Calm Calm - N/A   Clear
8:53 AM 66.0 °F - 59.0 °F 78% 30.17 in 10.0 mi East 3.5 mph - N/A   Clear
9:53 AM 70.0 °F - 61.0 °F 73% 30.17 in 10.0 mi ESE 4.6 mph - N/A   Clear
10:53 AM 75.9 °F - 63.0 °F 64% 30.16 in 10.0 mi SE 5.8 mph - N/A   Clear
11:53 AM 77.0 °F - 61.0 °F 58% 30.15 in 10.0 mi SE 11.5 mph - N/A   Mostly Cloudy
12:53 PM 78.1 °F - 61.0 °F 56% 30.13 in 10.0 mi South 8.1 mph - N/A   Scattered Clouds
1:53 PM 79.0 °F - 61.0 °F 54% 30.11 in 10.0 mi SSE 9.2 mph - N/A   Scattered Clouds
2:53 PM 82.0 °F 83.0 °F 62.1 °F 51% 30.09 in 10.0 mi SSE 6.9 mph - N/A   Partly Cloudy
3:53 PM 82.9 °F 83.3 °F 61.0 °F 47% 30.07 in 10.0 mi South 11.5 mph - N/A   Scattered Clouds
4:53 PM 82.0 °F 83.0 °F 62.1 °F 51% 30.06 in 10.0 mi SE 10.4 mph - N/A   Scattered Clouds
5:53 PM 82.0 °F 83.0 °F 62.1 °F 51% 30.06 in 10.0 mi ESE 9.2 mph - N/A   Scattered Clouds
6:53 PM 80.1 °F 81.1 °F 61.0 °F 52% 30.05 in 10.0 mi SE 5.8 mph - N/A   Clear
7:53 PM 75.9 °F - 62.1 °F 62% 30.06 in 10.0 mi ESE 4.6 mph - N/A   Clear
8:53 PM 73.0 °F - 62.1 °F 68% 30.06 in 10.0 mi ESE 3.5 mph - N/A   Clear
9:53 PM 69.1 °F - 64.0 °F 84% 30.09 in 10.0 mi Calm Calm - N/A   Clear
10:53 PM 68.0 °F - 63.0 °F 84% 30.09 in 10.0 mi Calm Calm - N/A   Clear
11:53 PM 64.9 °F - 61.0 °F 87% 30.10 in 9.0 mi Calm Calm - N/A   Clear